Wetterdaten: Montag, 15.07.2013
Datum Zeit Temperatur Luftfeuchte Luftdruck Regen Wind Richtung Richtung Taupunkt Windchill Windben
15.07.2013 00:00 13,4 C 73 % 1024,5 hPa 0,0 l/m 0,0 km/h (0 Bft) S-SW 202 8,7 C 13,2 C 0,0 km/h (0 Bft)
15.07.2013 00:05 13,4 C 73 % 1024,5 hPa 0,0 l/m 0,0 km/h (0 Bft) O-SO 112 8,7 C 13,0 C 0,0 km/h (0 Bft)
15.07.2013 00:10 13,3 C 73 % 1024,5 hPa 0,0 l/m 0,0 km/h (0 Bft) O-SO 112 8,6 C 13,0 C 0,0 km/h (0 Bft)
15.07.2013 00:15 13,2 C 73 % 1024,5 hPa 0,0 l/m 0,0 km/h (0 Bft) N-NO 22 8,5 C 12,9 C 0,0 km/h (0 Bft)
15.07.2013 00:20 13,0 C 73 % 1024,4 hPa 0,0 l/m 0,0 km/h (0 Bft) S 180 8,3 C 12,8 C 0,0 km/h (0 Bft)
15.07.2013 00:25 12,9 C 74 % 1024,4 hPa 0,0 l/m 0,0 km/h (0 Bft) S-SO 157 8,4 C 12,7 C 0,0 km/h (0 Bft)
15.07.2013 00:30 12,9 C 75 % 1024,4 hPa 0,0 l/m 0,0 km/h (0 Bft) S-SO 157 8,6 C 12,5 C 0,0 km/h (0 Bft)
15.07.2013 00:35 12,8 C 75 % 1024,4 hPa 0,0 l/m 0,0 km/h (0 Bft) S 180 8,5 C 12,4 C 0,0 km/h (0 Bft)
15.07.2013 00:40 12,8 C 75 % 1024,4 hPa 0,0 l/m 0,0 km/h (0 Bft) O-SO 112 8,5 C 12,3 C 0,0 km/h (0 Bft)
15.07.2013 00:45 12,6 C 75 % 1024,4 hPa 0,0 l/m 0,0 km/h (0 Bft) O-SO 112 8,3 C 12,2 C 0,0 km/h (0 Bft)
15.07.2013 00:50 12,6 C 75 % 1024,4 hPa 0,0 l/m 0,0 km/h (0 Bft) O-SO 112 8,3 C 12,2 C 0,0 km/h (0 Bft)
15.07.2013 00:55 12,6 C 76 % 1024,4 hPa 0,0 l/m 0,0 km/h (0 Bft) O-SO 112 8,5 C 12,0 C 0,0 km/h (0 Bft)
15.07.2013 01:00 12,6 C 76 % 1024,4 hPa 0,0 l/m 0,0 km/h (0 Bft) O-SO 112 8,5 C 12,0 C 0,0 km/h (0 Bft)
15.07.2013 01:05 12,3 C 76 % 1024,4 hPa 0,0 l/m 0,0 km/h (0 Bft) W 270 8,2 C 12,0 C 0,0 km/h (0 Bft)
15.07.2013 01:10 12,2 C 76 % 1024,4 hPa 0,0 l/m 0,0 km/h (0 Bft) W 270 8,1 C 11,9 C 0,0 km/h (0 Bft)
15.07.2013 01:15 12,2 C 77 % 1024,4 hPa 0,0 l/m 0,0 km/h (0 Bft) W-SW 247 8,3 C 11,9 C 0,0 km/h (0 Bft)
15.07.2013 01:20 12,2 C 77 % 1024,2 hPa 0,0 l/m 0,0 km/h (0 Bft) O-SO 112 8,3 C 11,8 C 0,0 km/h (0 Bft)
15.07.2013 01:25 12,5 C 77 % 1024,2 hPa 0,0 l/m 0,0 km/h (0 Bft) O 90 8,6 C 11,8 C 0,0 km/h (0 Bft)
15.07.2013 01:30 12,5 C 77 % 1024,2 hPa 0,0 l/m 0,0 km/h (0 Bft) N 360 8,6 C 11,9 C 0,0 km/h (0 Bft)
15.07.2013 01:35 12,6 C 78 % 1024,2 hPa 0,0 l/m 0,0 km/h (0 Bft) O-NO 67 8,9 C 12,0 C 0,0 km/h (0 Bft)
15.07.2013 01:40 12,6 C 78 % 1024,4 hPa 0,0 l/m 0,2 km/h (0 Bft) O 90 8,9 C 12,0 C 0,0 km/h (0 Bft)
15.07.2013 01:45 12,5 C 78 % 1024,4 hPa 0,0 l/m 0,2 km/h (0 Bft) O-SO 112 8,8 C 12,0 C 1,9 km/h (1 Bft)
15.07.2013 01:50 12,3 C 78 % 1024,4 hPa 0,0 l/m 0,0 km/h (0 Bft) S 180 8,6 C 12,0 C 0,0 km/h (0 Bft)
15.07.2013 01:55 12,0 C 79 % 1024,4 hPa 0,0 l/m 0,0 km/h (0 Bft) O-SO 112 8,5 C 11,7 C 0,0 km/h (0 Bft)
15.07.2013 02:00 11,9 C 79 % 1024,1 hPa 0,0 l/m 0,0 km/h (0 Bft) O-SO 112 8,4 C 11,6 C 0,0 km/h (0 Bft)
15.07.2013 02:05 11,9 C 83 % 1024,1 hPa 0,0 l/m 0,0 km/h (0 Bft) N 360 9,1 C 11,5 C 0,0 km/h (0 Bft)
15.07.2013 02:10 11,9 C 82 % 1024,1 hPa 0,0 l/m 0,0 km/h (0 Bft) N 360 8,9 C 11,4 C 0,0 km/h (0 Bft)
15.07.2013 02:15 11,8 C 81 % 1024,1 hPa 0,0 l/m 0,0 km/h (0 Bft) N 360 8,6 C 11,3 C 0,0 km/h (0 Bft)
15.07.2013 02:20 11,8 C 82 % 1024,1 hPa 0,0 l/m 0,2 km/h (0 Bft) N-NO 22 8,8 C 11,2 C 1,6 km/h (1 Bft)
15.07.2013 02:25 11,8 C 81 % 1024,1 hPa 0,0 l/m 0,2 km/h (0 Bft) NO 45 8,6 C 11,2 C 0,0 km/h (0 Bft)
15.07.2013 02:30 11,7 C 81 % 1024,1 hPa 0,0 l/m 0,2 km/h (0 Bft) NO 45 8,5 C 11,2 C 0,0 km/h (0 Bft)
15.07.2013 02:35 11,5 C 81 % 1024,1 hPa 0,0 l/m 0,0 km/h (0 Bft) NO 45 8,4 C 11,1 C 0,0 km/h (0 Bft)
15.07.2013 02:40 11,5 C 81 % 1023,9 hPa 0,0 l/m 0,0 km/h (0 Bft) NO 45 8,4 C 11,0 C 0,0 km/h (0 Bft)
15.07.2013 02:45 11,5 C 81 % 1023,9 hPa 0,0 l/m 0,2 km/h (0 Bft) NO 45 8,4 C 10,9 C 2,1 km/h (1 Bft)
15.07.2013 02:50 11,7 C 81 % 1023,9 hPa 0,0 l/m 0,3 km/h (0 Bft) O-NO 67 8,5 C 11,0 C 0,0 km/h (0 Bft)
15.07.2013 02:55 11,7 C 81 % 1023,9 hPa 0,0 l/m 0,3 km/h (0 Bft) O-SO 112 8,5 C 11,0 C 2,3 km/h (1 Bft)
15.07.2013 03:00 12,1 C 82 % 1023,9 hPa 0,0 l/m 0,6 km/h (0 Bft) O-SO 112 9,1 C 11,2 C 1,9 km/h (1 Bft)
15.07.2013 03:05 11,7 C 81 % 1023,9 hPa 0,0 l/m 0,6 km/h (0 Bft) S-SO 157 8,5 C 11,3 C 0,0 km/h (0 Bft)
15.07.2013 03:10 11,5 C 81 % 1023,9 hPa 0,0 l/m 0,2 km/h (0 Bft) W-SW 247 8,4 C 11,2 C 0,0 km/h (0 Bft)
15.07.2013 03:15 11,1 C 81 % 1023,9 hPa 0,0 l/m 0,0 km/h (0 Bft) W 270 8,0 C 10,9 C 0,0 km/h (0 Bft)
15.07.2013 03:20 11,2 C 81 % 1023,8 hPa 0,0 l/m 0,0 km/h (0 Bft) O 90 8,1 C 10,8 C 0,0 km/h (0 Bft)
15.07.2013 03:25 11,4 C 82 % 1023,8 hPa 0,0 l/m 0,2 km/h (0 Bft) NO 45 8,4 C 10,7 C 0,0 km/h (0 Bft)
15.07.2013 03:30 11,4 C 82 % 1023,8 hPa 0,0 l/m 0,5 km/h (0 Bft) O 90 8,4 C 10,7 C 1,9 km/h (1 Bft)
15.07.2013 03:35 11,2 C 82 % 1023,8 hPa 0,0 l/m 1,1 km/h (1 Bft) W-SW 247 8,2 C 10,9 C 4,0 km/h (1 Bft)
15.07.2013 03:40 11,1 C 81 % 1023,6 hPa 0,0 l/m 1,0 km/h (0 Bft) NO 45 8,0 C 10,8 C 2,1 km/h (1 Bft)
15.07.2013 03:45 11,1 C 81 % 1023,6 hPa 0,0 l/m 0,2 km/h (0 Bft) O 90 8,0 C 10,7 C 0,0 km/h (0 Bft)
15.07.2013 03:50 10,9 C 81 % 1023,6 hPa 0,0 l/m 0,2 km/h (0 Bft) W 270 7,8 C 10,5 C 0,0 km/h (0 Bft)
15.07.2013 03:55 10,9 C 82 % 1023,6 hPa 0,0 l/m 0,6 km/h (0 Bft) O 90 7,9 C 10,4 C 2,1 km/h (1 Bft)
15.07.2013 04:00 11,0 C 82 % 1023,6 hPa 0,0 l/m 0,8 km/h (0 Bft) O-SO 112 8,0 C 10,4 C 0,0 km/h (0 Bft)
15.07.2013 04:05 10,9 C 83 % 1023,6 hPa 0,0 l/m 0,5 km/h (0 Bft) NO 45 8,1 C 10,4 C 0,0 km/h (0 Bft)
15.07.2013 04:10 10,7 C 83 % 1023,6 hPa 0,0 l/m 0,0 km/h (0 Bft) NW 315 7,9 C 10,3 C 0,0 km/h (0 Bft)
15.07.2013 04:15 10,6 C 83 % 1023,6 hPa 0,0 l/m 0,0 km/h (0 Bft) N 360 7,8 C 10,2 C 0,0 km/h (0 Bft)
15.07.2013 04:20 10,6 C 84 % 1023,5 hPa 0,0 l/m 0,0 km/h (0 Bft) N-NO 22 8,0 C 10,1 C 0,0 km/h (0 Bft)
15.07.2013 04:25 10,6 C 84 % 1023,5 hPa 0,0 l/m 0,0 km/h (0 Bft) NO 45 8,0 C 10,0 C 0,0 km/h (0 Bft)
15.07.2013 04:30 10,5 C 84 % 1023,5 hPa 0,0 l/m 0,0 km/h (0 Bft) NO 45 7,9 C 9,9 C 0,0 km/h (0 Bft)
15.07.2013 04:35 10,6 C 84 % 1023,5 hPa 0,0 l/m 0,0 km/h (0 Bft) O-SO 112 8,0 C 9,9 C 0,0 km/h (0 Bft)
15.07.2013 04:40 10,5 C 84 % 1023,5 hPa 0,0 l/m 0,0 km/h (0 Bft) S 180 7,9 C 9,9 C 0,0 km/h (0 Bft)
15.07.2013 04:45 10,3 C 84 % 1023,5 hPa 0,0 l/m 0,0 km/h (0 Bft) W-SW 247 7,7 C 9,9 C 0,0 km/h (0 Bft)
15.07.2013 04:50 10,3 C 84 % 1023,5 hPa 0,0 l/m 0,0 km/h (0 Bft) O-NO 67 7,7 C 9,8 C 0,0 km/h (0 Bft)
15.07.2013 04:55 11,0 C 85 % 1023,5 hPa 0,0 l/m 1,1 km/h (1 Bft) SO 135 8,6 C 10,0 C 2,9 km/h (1 Bft)
15.07.2013 05:00 11,1 C 85 % 1023,4 hPa 0,0 l/m 1,3 km/h (1 Bft) O 90 8,7 C 10,2 C 2,3 km/h (1 Bft)
15.07.2013 05:05 11,1 C 84 % 1023,4 hPa 0,0 l/m 0,6 km/h (0 Bft) O 90 8,5 C 10,4 C 1,6 km/h (1 Bft)
15.07.2013 05:10 10,9 C 84 % 1023,4 hPa 0,0 l/m 0,5 km/h (0 Bft) O 90 8,3 C 10,4 C 0,0 km/h (0 Bft)
15.07.2013 05:15 10,7 C 84 % 1023,4 hPa 0,0 l/m 0,2 km/h (0 Bft) S 180 8,1 C 10,4 C 0,0 km/h (0 Bft)
15.07.2013 05:20 10,4 C 84 % 1023,4 hPa 0,0 l/m 0,3 km/h (0 Bft) S-SW 202 7,8 C 10,3 C 2,1 km/h (1 Bft)
15.07.2013 05:25 10,5 C 84 % 1023,4 hPa 0,0 l/m 0,3 km/h (0 Bft) SO 135 7,9 C 10,1 C 0,0 km/h (0 Bft)
15.07.2013 05:30 10,5 C 84 % 1023,4 hPa 0,0 l/m 0,0 km/h (0 Bft) O 90 7,9 C 10,1 C 0,0 km/h (0 Bft)
15.07.2013 05:35 10,5 C 84 % 1023,4 hPa 0,0 l/m 0,0 km/h (0 Bft) O 90 7,9 C 9,9 C 0,0 km/h (0 Bft)
15.07.2013 05:40 10,3 C 84 % 1023,3 hPa 0,0 l/m 0,0 km/h (0 Bft) W-SW 247 7,7 C 9,9 C 0,0 km/h (0 Bft)
15.07.2013 05:45 10,3 C 84 % 1023,3 hPa 0,0 l/m 0,0 km/h (0 Bft) S 180 7,7 C 9,8 C 0,0 km/h (0 Bft)
15.07.2013 05:50 10,3 C 85 % 1023,3 hPa 0,0 l/m 0,0 km/h (0 Bft) O-NO 67 7,9 C 9,8 C 0,0 km/h (0 Bft)
15.07.2013 05:55 10,3 C 84 % 1023,3 hPa 0,0 l/m 0,0 km/h (0 Bft) SO 135 7,7 C 9,8 C 0,0 km/h (0 Bft)
15.07.2013 06:00 10,5 C 85 % 1023,4 hPa 0,0 l/m 0,0 km/h (0 Bft) SO 135 8,1 C 9,9 C 0,0 km/h (0 Bft)
15.07.2013 06:05 10,6 C 85 % 1023,4 hPa 0,0 l/m 0,0 km/h (0 Bft) O 90 8,2 C 10,3 C 0,0 km/h (0 Bft)
15.07.2013 06:10 10,8 C 85 % 1023,4 hPa 0,0 l/m 0,0 km/h (0 Bft) N-NO 22 8,4 C 10,6 C 0,0 km/h (0 Bft)
15.07.2013 06:15 11,3 C 84 % 1023,4 hPa 0,0 l/m 0,0 km/h (0 Bft) N-NO 22 8,7 C 11,2 C 0,0 km/h (0 Bft)
15.07.2013 06:20 11,5 C 84 % 1023,8 hPa 0,0 l/m 0,0 km/h (0 Bft) N-NO 22 8,9 C 11,4 C 0,0 km/h (0 Bft)
15.07.2013 06:25 11,7 C 84 % 1023,8 hPa 0,0 l/m 0,0 km/h (0 Bft) N-NO 22 9,1 C 11,5 C 0,0 km/h (0 Bft)
15.07.2013 06:30 12,0 C 83 % 1023,8 hPa 0,0 l/m 0,0 km/h (0 Bft) N-NO 22 9,2 C 11,6 C 0,0 km/h (0 Bft)
15.07.2013 06:35 12,3 C 83 % 1023,8 hPa 0,0 l/m 0,0 km/h (0 Bft) O 90 9,5 C 12,0 C 0,0 km/h (0 Bft)
15.07.2013 06:40 12,7 C 82 % 1023,8 hPa 0,0 l/m 0,0 km/h (0 Bft) O 90 9,7 C 12,4 C 0,0 km/h (0 Bft)
15.07.2013 06:45 13,4 C 81 % 1023,8 hPa 0,0 l/m 0,0 km/h (0 Bft) N-NO 22 10,2 C 13,4 C 0,0 km/h (0 Bft)
15.07.2013 06:50 13,8 C 79 % 1023,8 hPa 0,0 l/m 0,0 km/h (0 Bft) O 90 10,2 C 13,7 C 0,0 km/h (0 Bft)
15.07.2013 06:55 14,4 C 79 % 1023,8 hPa 0,0 l/m 0,0 km/h (0 Bft) SO 135 10,8 C 14,3 C 0,0 km/h (0 Bft)
15.07.2013 07:00 14,3 C 78 % 1023,8 hPa 0,0 l/m 0,0 km/h (0 Bft) S-SO 157 10,5 C 14,5 C 0,0 km/h (0 Bft)
15.07.2013 07:05 14,5 C 77 % 1023,8 hPa 0,0 l/m 0,0 km/h (0 Bft) S-SO 157 10,5 C 14,5 C 0,0 km/h (0 Bft)
15.07.2013 07:10 14,9 C 76 % 1023,8 hPa 0,0 l/m 0,0 km/h (0 Bft) S-SW 202 10,7 C 14,8 C 0,0 km/h (0 Bft)
15.07.2013 07:15 15,9 C 74 % 1023,8 hPa 0,0 l/m 0,0 km/h (0 Bft) S-SO 157 11,3 C 15,5 C 0,0 km/h (0 Bft)
15.07.2013 07:20 17,1 C 72 % 1023,9 hPa 0,0 l/m 0,0 km/h (0 Bft) S-SO 157 12,0 C 16,4 C 0,0 km/h (0 Bft)
15.07.2013 07:25 17,0 C 69 % 1023,9 hPa 0,0 l/m 0,0 km/h (0 Bft) W 270 11,3 C 17,1 C 0,0 km/h (0 Bft)
15.07.2013 07:30 17,4 C 65 % 1023,9 hPa 0,0 l/m 0,0 km/h (0 Bft) N 360 10,8 C 17,7 C 0,0 km/h (0 Bft)
15.07.2013 07:35 18,0 C 63 % 1023,9 hPa 0,0 l/m 0,0 km/h (0 Bft) N-NW 337 10,8 C 18,6 C 0,0 km/h (0 Bft)
15.07.2013 07:40 18,2 C 63 % 1024,1 hPa 0,0 l/m 0,0 km/h (0 Bft) W-NW 292 11,0 C 19,3 C 0,0 km/h (0 Bft)
15.07.2013 07:45 19,4 C 62 % 1024,1 hPa 0,0 l/m 0,0 km/h (0 Bft) W 270 11,9 C 20,4 C 0,0 km/h (0 Bft)
15.07.2013 07:50 19,4 C 60 % 1024,1 hPa 0,0 l/m 0,2 km/h (0 Bft) NO 45 11,4 C 21,0 C 0,0 km/h (0 Bft)
15.07.2013 07:55 19,8 C 61 % 1024,1 hPa 0,0 l/m 0,2 km/h (0 Bft) O-NO 67 12,1 C 21,5 C 0,0 km/h (0 Bft)
15.07.2013 08:00 20,1 C 61 % 1024,2 hPa 0,0 l/m 0,2 km/h (0 Bft) NO 45 12,3 C 21,6 C 0,0 km/h (0 Bft)
15.07.2013 08:05 21,0 C 60 % 1024,2 hPa 0,0 l/m 0,0 km/h (0 Bft) NO 45 12,9 C 22,3 C 0,0 km/h (0 Bft)
15.07.2013 08:10 21,7 C 59 % 1024,2 hPa 0,0 l/m 0,0 km/h (0 Bft) O-SO 112 13,3 C 22,8 C 0,0 km/h (0 Bft)
15.07.2013 08:15 21,4 C 58 % 1024,2 hPa 0,0 l/m 0,0 km/h (0 Bft) O-SO 112 12,8 C 23,3 C 0,0 km/h (0 Bft)
15.07.2013 08:20 21,1 C 57 % 1024,3 hPa 0,0 l/m 0,0 km/h (0 Bft) O-SO 112 12,2 C 23,4 C 0,0 km/h (0 Bft)
15.07.2013 08:25 21,6 C 57 % 1024,3 hPa 0,0 l/m 0,0 km/h (0 Bft) SO 135 12,7 C 23,6 C 2,1 km/h (1 Bft)
15.07.2013 08:30 22,1 C 57 % 1024,3 hPa 0,0 l/m 0,5 km/h (0 Bft) S-SW 202 13,2 C 23,7 C 2,1 km/h (1 Bft)
15.07.2013 08:35 23,8 C 54 % 1024,3 hPa 0,0 l/m 1,0 km/h (0 Bft) W-SW 247 13,9 C 24,0 C 2,4 km/h (1 Bft)
15.07.2013 08:40 23,9 C 53 % 1024,4 hPa 0,0 l/m 1,1 km/h (1 Bft) W 270 13,7 C 24,3 C 2,7 km/h (1 Bft)
15.07.2013 08:45 24,4 C 50 % 1024,4 hPa 0,0 l/m 1,8 km/h (1 Bft) S-SW 202 13,3 C 24,4 C 4,2 km/h (1 Bft)
15.07.2013 08:50 24,4 C 49 % 1024,4 hPa 0,0 l/m 2,3 km/h (1 Bft) S 180 13,0 C 24,4 C 3,4 km/h (1 Bft)
15.07.2013 08:55 24,1 C 48 % 1024,4 hPa 0,0 l/m 2,6 km/h (1 Bft) S 180 12,4 C 24,8 C 5,6 km/h (1 Bft)
15.07.2013 09:00 23,4 C 48 % 1024,6 hPa 0,0 l/m 2,9 km/h (1 Bft) S 180 11,8 C 24,5 C 3,9 km/h (1 Bft)
15.07.2013 09:05 21,2 C 51 % 1024,6 hPa 0,0 l/m 3,4 km/h (1 Bft) S 180 10,7 C 22,8 C 5,8 km/h (2 Bft)
15.07.2013 09:10 22,9 C 53 % 1024,6 hPa 0,0 l/m 2,7 km/h (1 Bft) S-SO 157 12,8 C 22,4 C 2,6 km/h (1 Bft)
15.07.2013 09:15 23,6 C 49 % 1024,6 hPa 0,0 l/m 2,7 km/h (1 Bft) S-SO 157 12,2 C 23,2 C 2,1 km/h (1 Bft)
15.07.2013 09:20 22,6 C 49 % 1025,1 hPa 0,0 l/m 3,1 km/h (1 Bft) SW 225 11,3 C 23,2 C 4,0 km/h (1 Bft)
15.07.2013 09:25 23,1 C 49 % 1025,1 hPa 0,0 l/m 3,2 km/h (1 Bft) S 180 11,8 C 23,3 C 7,4 km/h (2 Bft)
15.07.2013 09:30 22,8 C 47 % 1025,1 hPa 0,0 l/m 3,1 km/h (1 Bft) S-SW 202 10,9 C 23,6 C 4,8 km/h (1 Bft)
15.07.2013 09:35 23,0 C 49 % 1025,1 hPa 0,0 l/m 2,4 km/h (1 Bft) S 180 11,7 C 23,7 C 2,9 km/h (1 Bft)
15.07.2013 09:40 22,6 C 49 % 1025,3 hPa 0,0 l/m 2,3 km/h (1 Bft) S-SW 202 11,3 C 23,8 C 1,9 km/h (1 Bft)
15.07.2013 09:45 22,4 C 49 % 1025,3 hPa 0,0 l/m 1,8 km/h (1 Bft) S 180 11,2 C 23,8 C 6,9 km/h (2 Bft)
15.07.2013 09:50 22,1 C 51 % 1025,3 hPa 0,0 l/m 2,4 km/h (1 Bft) S-SW 202 11,5 C 23,4 C 6,8 km/h (2 Bft)
15.07.2013 09:55 24,1 C 48 % 1025,3 hPa 0,0 l/m 4,0 km/h (1 Bft) S 180 12,4 C 23,3 C 6,1 km/h (2 Bft)
15.07.2013 10:00 25,1 C 44 % 1025,2 hPa 0,0 l/m 4,7 km/h (1 Bft) SW 225 12,0 C 24,2 C 5,3 km/h (1 Bft)
15.07.2013 10:05 24,8 C 43 % 1025,2 hPa 0,0 l/m 4,7 km/h (1 Bft) S 180 11,4 C 24,7 C 8,4 km/h (2 Bft)
15.07.2013 10:10 24,7 C 45 % 1025,2 hPa 0,0 l/m 4,3 km/h (1 Bft) S 180 12,0 C 25,0 C 4,7 km/h (1 Bft)
15.07.2013 10:15 25,0 C 43 % 1025,2 hPa 0,0 l/m 4,2 km/h (1 Bft) S 180 11,5 C 25,6 C 7,6 km/h (2 Bft)
15.07.2013 10:20 25,1 C 43 % 1025,2 hPa 0,0 l/m 4,2 km/h (1 Bft) S-SW 202 11,6 C 25,4 C 4,5 km/h (1 Bft)
15.07.2013 10:25 25,0 C 41 % 1025,2 hPa 0,0 l/m 4,0 km/h (1 Bft) SW 225 10,8 C 25,8 C 5,1 km/h (1 Bft)
15.07.2013 10:30 25,5 C 41 % 1025,2 hPa 0,0 l/m 3,9 km/h (1 Bft) W-SW 247 11,3 C 25,9 C 6,0 km/h (2 Bft)
15.07.2013 10:35 25,0 C 42 % 1025,2 hPa 0,0 l/m 4,5 km/h (1 Bft) W 270 11,2 C 26,2 C 6,9 km/h (2 Bft)
15.07.2013 10:40 24,4 C 44 % 1025,4 hPa 0,0 l/m 4,8 km/h (1 Bft) S-SW 202 11,3 C 25,6 C 3,1 km/h (1 Bft)
15.07.2013 10:45 25,1 C 42 % 1025,4 hPa 0,0 l/m 5,6 km/h (1 Bft) W-SW 247 11,3 C 25,4 C 12,1 km/h (2 Bft)
15.07.2013 10:50 24,0 C 43 % 1025,4 hPa 0,0 l/m 5,3 km/h (1 Bft) S 180 10,6 C 25,2 C 6,4 km/h (2 Bft)
15.07.2013 10:55 24,4 C 44 % 1025,4 hPa 0,0 l/m 5,8 km/h (2 Bft) S 180 11,3 C 24,6 C 4,8 km/h (1 Bft)
15.07.2013 11:00 24,4 C 42 % 1025,7 hPa 0,0 l/m 6,1 km/h (2 Bft) SO 135 10,6 C 24,6 C 5,3 km/h (1 Bft)
15.07.2013 11:05 25,1 C 42 % 1025,7 hPa 0,0 l/m 6,6 km/h (2 Bft) S 180 11,3 C 24,8 C 14,2 km/h (3 Bft)
15.07.2013 11:10 25,5 C 42 % 1025,7 hPa 0,0 l/m 5,8 km/h (2 Bft) W-SW 247 11,6 C 25,0 C 5,3 km/h (1 Bft)
15.07.2013 11:15 25,8 C 43 % 1025,7 hPa 0,0 l/m 5,8 km/h (2 Bft) S-SW 202 12,3 C 25,3 C 7,6 km/h (2 Bft)
15.07.2013 11:20 26,2 C 40 % 1025,7 hPa 0,0 l/m 5,5 km/h (1 Bft) W-SW 247 11,5 C 25,6 C 8,4 km/h (2 Bft)
15.07.2013 11:25 26,4 C 39 % 1025,7 hPa 0,0 l/m 6,9 km/h (2 Bft) S-SW 202 11,3 C 25,6 C 11,9 km/h (2 Bft)
15.07.2013 11:30 25,3 C 42 % 1025,7 hPa 0,0 l/m 7,6 km/h (2 Bft) SW 225 11,5 C 25,3 C 4,2 km/h (1 Bft)
15.07.2013 11:35 25,0 C 41 % 1025,7 hPa 0,0 l/m 6,9 km/h (2 Bft) S-SO 157 10,8 C 25,3 C 7,2 km/h (2 Bft)
15.07.2013 11:40 25,5 C 43 % 1025,8 hPa 0,0 l/m 6,3 km/h (2 Bft) S-SW 202 12,0 C 25,2 C 9,2 km/h (2 Bft)
15.07.2013 11:45 25,7 C 41 % 1025,8 hPa 0,0 l/m 6,3 km/h (2 Bft) W-NW 292 11,4 C 25,5 C 4,7 km/h (1 Bft)
15.07.2013 11:50 26,3 C 40 % 1025,8 hPa 0,0 l/m 5,6 km/h (1 Bft) S 180 11,6 C 25,7 C 7,9 km/h (2 Bft)
15.07.2013 11:55 26,8 C 40 % 1025,8 hPa 0,0 l/m 4,8 km/h (1 Bft) W 270 12,1 C 26,1 C 3,5 km/h (1 Bft)
15.07.2013 12:00 27,3 C 40 % 1025,8 hPa 0,0 l/m 4,8 km/h (1 Bft) SO 135 12,5 C 26,9 C 13,5 km/h (3 Bft)
15.07.2013 12:05 25,5 C 42 % 1025,8 hPa 0,0 l/m 5,5 km/h (1 Bft) S-SW 202 11,6 C 26,6 C 9,2 km/h (2 Bft)
15.07.2013 12:10 24,4 C 43 % 1025,8 hPa 0,0 l/m 6,6 km/h (2 Bft) W-SW 247 11,0 C 25,4 C 9,2 km/h (2 Bft)
15.07.2013 12:15 25,6 C 42 % 1025,8 hPa 0,0 l/m 6,9 km/h (2 Bft) W 270 11,7 C 25,3 C 16,4 km/h (3 Bft)
15.07.2013 12:20 26,2 C 40 % 1025,8 hPa 0,0 l/m 6,8 km/h (2 Bft) S 180 11,5 C 25,7 C 5,5 km/h (1 Bft)
15.07.2013 12:25 24,3 C 43 % 1025,8 hPa 0,0 l/m 5,8 km/h (2 Bft) S 180 10,9 C 25,6 C 8,2 km/h (2 Bft)
15.07.2013 12:30 25,0 C 45 % 1025,8 hPa 0,0 l/m 6,6 km/h (2 Bft) S-SW 202 12,2 C 24,8 C 6,8 km/h (2 Bft)
15.07.2013 12:35 23,8 C 46 % 1025,8 hPa 0,0 l/m 6,0 km/h (2 Bft) SW 225 11,5 C 24,3 C 9,8 km/h (2 Bft)
15.07.2013 12:40 25,5 C 43 % 1025,7 hPa 0,0 l/m 5,6 km/h (1 Bft) W-SW 247 12,0 C 24,5 C 6,8 km/h (2 Bft)
15.07.2013 12:45 25,8 C 40 % 1025,7 hPa 0,0 l/m 7,4 km/h (2 Bft) S-SO 157 11,2 C 25,0 C 7,9 km/h (2 Bft)
15.07.2013 12:50 26,1 C 40 % 1025,7 hPa 0,0 l/m 7,2 km/h (2 Bft) S 180 11,4 C 25,4 C 8,5 km/h (2 Bft)
15.07.2013 12:55 25,6 C 42 % 1025,7 hPa 0,0 l/m 6,9 km/h (2 Bft) S-SO 157 11,7 C 25,7 C 8,2 km/h (2 Bft)
15.07.2013 13:00 25,6 C 42 % 1025,7 hPa 0,0 l/m 6,3 km/h (2 Bft) O 90 11,7 C 26,0 C 2,3 km/h (1 Bft)
15.07.2013 13:05 25,8 C 44 % 1025,7 hPa 0,0 l/m 6,3 km/h (2 Bft) W-SW 247 12,6 C 26,5 C 8,2 km/h (2 Bft)
15.07.2013 13:10 25,7 C 43 % 1025,7 hPa 0,0 l/m 6,4 km/h (2 Bft) S-SO 157 12,2 C 26,6 C 8,4 km/h (2 Bft)
15.07.2013 13:15 26,2 C 42 % 1025,7 hPa 0,0 l/m 5,5 km/h (1 Bft) SO 135 12,3 C 27,1 C 6,9 km/h (2 Bft)
15.07.2013 13:20 25,8 C 44 % 1025,2 hPa 0,0 l/m 5,8 km/h (2 Bft) S 180 12,6 C 27,4 C 12,1 km/h (2 Bft)
15.07.2013 13:25 26,0 C 41 % 1025,2 hPa 0,0 l/m 6,3 km/h (2 Bft) W-SW 247 11,7 C 27,0 C 9,0 km/h (2 Bft)
15.07.2013 13:30 26,3 C 41 % 1025,2 hPa 0,0 l/m 6,6 km/h (2 Bft) S 180 12,0 C 27,0 C 11,6 km/h (2 Bft)
15.07.2013 13:35 24,5 C 46 % 1025,2 hPa 0,0 l/m 6,9 km/h (2 Bft) S-SW 202 12,1 C 25,9 C 5,8 km/h (2 Bft)
15.07.2013 13:40 24,0 C 45 % 1025,8 hPa 0,0 l/m 6,8 km/h (2 Bft) S 180 11,3 C 25,1 C 6,1 km/h (2 Bft)
15.07.2013 13:45 26,4 C 44 % 1025,8 hPa 0,0 l/m 5,3 km/h (1 Bft) S-SO 157 13,1 C 26,0 C 6,9 km/h (2 Bft)
15.07.2013 13:50 26,8 C 40 % 1025,8 hPa 0,0 l/m 5,5 km/h (1 Bft) S-SW 202 12,1 C 26,9 C 7,6 km/h (2 Bft)
15.07.2013 13:55 24,8 C 43 % 1025,8 hPa 0,0 l/m 7,2 km/h (2 Bft) O-SO 112 11,4 C 26,6 C 13,0 km/h (3 Bft)
15.07.2013 14:00 25,3 C 42 % 1025,8 hPa 0,0 l/m 7,2 km/h (2 Bft) S-SO 157 11,5 C 25,7 C 10,3 km/h (2 Bft)
15.07.2013 14:05 25,9 C 42 % 1025,8 hPa 0,0 l/m 8,2 km/h (2 Bft) S-SW 202 12,0 C 26,0 C 11,4 km/h (2 Bft)
15.07.2013 14:10 25,6 C 39 % 1025,8 hPa 0,0 l/m 8,5 km/h (2 Bft) S-SW 202 10,6 C 26,1 C 3,7 km/h (1 Bft)
15.07.2013 14:15 24,6 C 43 % 1025,8 hPa 0,0 l/m 7,4 km/h (2 Bft) SW 225 11,2 C 26,1 C 5,5 km/h (1 Bft)
15.07.2013 14:20 24,7 C 44 % 1025,7 hPa 0,0 l/m 6,4 km/h (2 Bft) S-SW 202 11,6 C 25,8 C 6,8 km/h (2 Bft)
15.07.2013 14:25 26,2 C 42 % 1025,7 hPa 0,0 l/m 6,1 km/h (2 Bft) W-SW 247 12,3 C 26,0 C 6,0 km/h (2 Bft)
15.07.2013 14:30 26,4 C 39 % 1025,7 hPa 0,0 l/m 7,6 km/h (2 Bft) S-SW 202 11,3 C 26,3 C 7,9 km/h (2 Bft)
15.07.2013 14:35 24,9 C 42 % 1025,7 hPa 0,0 l/m 9,2 km/h (2 Bft) S 180 11,1 C 25,8 C 20,1 km/h (4 Bft)
15.07.2013 14:40 25,9 C 42 % 1025,6 hPa 0,0 l/m 9,0 km/h (2 Bft) S 180 12,0 C 25,7 C 13,5 km/h (3 Bft)
15.07.2013 14:45 25,9 C 41 % 1025,6 hPa 0,0 l/m 8,0 km/h (2 Bft) S-SW 202 11,6 C 26,2 C 11,4 km/h (2 Bft)
15.07.2013 14:50 25,3 C 42 % 1025,6 hPa 0,0 l/m 7,2 km/h (2 Bft) W-SW 247 11,5 C 26,1 C 5,6 km/h (1 Bft)
15.07.2013 14:55 25,8 C 39 % 1025,6 hPa 0,0 l/m 7,2 km/h (2 Bft) S 180 10,8 C 26,7 C 9,7 km/h (2 Bft)
15.07.2013 15:00 24,3 C 43 % 1025,6 hPa 0,0 l/m 7,4 km/h (2 Bft) SO 135 10,9 C 26,2 C 7,2 km/h (2 Bft)
15.07.2013 15:05 25,2 C 42 % 1025,6 hPa 0,0 l/m 7,9 km/h (2 Bft) S-SW 202 11,4 C 25,7 C 11,1 km/h (2 Bft)
15.07.2013 15:10 25,4 C 41 % 1025,6 hPa 0,0 l/m 8,7 km/h (2 Bft) W-SW 247 11,2 C 25,4 C 13,2 km/h (3 Bft)
15.07.2013 15:15 24,4 C 41 % 1025,6 hPa 0,0 l/m 8,4 km/h (2 Bft) W-SW 247 10,3 C 25,3 C 6,0 km/h (2 Bft)
15.07.2013 15:20 24,4 C 42 % 1025,4 hPa 0,0 l/m 7,4 km/h (2 Bft) S-SW 202 10,6 C 25,0 C 4,0 km/h (1 Bft)
15.07.2013 15:25 25,1 C 44 % 1025,4 hPa 0,0 l/m 6,6 km/h (2 Bft) S 180 12,0 C 24,9 C 5,8 km/h (2 Bft)
15.07.2013 15:30 25,8 C 40 % 1025,4 hPa 0,0 l/m 6,4 km/h (2 Bft) S-SW 202 11,2 C 25,9 C 14,6 km/h (3 Bft)
15.07.2013 15:35 25,5 C 39 % 1025,4 hPa 0,0 l/m 7,6 km/h (2 Bft) W-SW 247 10,5 C 26,5 C 9,0 km/h (2 Bft)
15.07.2013 15:40 25,0 C 39 % 1025,5 hPa 0,0 l/m 9,0 km/h (2 Bft) S-SW 202 10,1 C 26,2 C 8,9 km/h (2 Bft)
15.07.2013 15:45 25,2 C 43 % 1025,5 hPa 0,0 l/m 6,9 km/h (2 Bft) S-SO 157 11,7 C 25,9 C 8,0 km/h (2 Bft)
15.07.2013 15:50 26,1 C 39 % 1025,5 hPa 0,0 l/m 7,4 km/h (2 Bft) S 180 11,0 C 26,4 C 9,7 km/h (2 Bft)
15.07.2013 15:55 25,7 C 38 % 1025,5 hPa 0,0 l/m 8,9 km/h (2 Bft) W-SW 247 10,3 C 26,4 C 10,6 km/h (2 Bft)
15.07.2013 16:00 25,8 C 38 % 1025,5 hPa 0,0 l/m 7,9 km/h (2 Bft) S 180 10,4 C 26,8 C 5,1 km/h (1 Bft)
15.07.2013 16:05 26,0 C 37 % 1025,5 hPa 0,0 l/m 8,2 km/h (2 Bft) SO 135 10,2 C 27,0 C 11,9 km/h (2 Bft)
15.07.2013 16:10 25,8 C 36 % 1025,5 hPa 0,0 l/m 8,5 km/h (2 Bft) S-SO 157 9,6 C 27,0 C 14,5 km/h (3 Bft)
15.07.2013 16:15 25,1 C 38 % 1025,5 hPa 0,0 l/m 8,0 km/h (2 Bft) S 180 9,8 C 26,9 C 7,6 km/h (2 Bft)
15.07.2013 16:20 25,9 C 39 % 1025,4 hPa 0,0 l/m 7,1 km/h (2 Bft) S-SW 202 10,9 C 27,2 C 10,0 km/h (2 Bft)
15.07.2013 16:25 26,1 C 37 % 1025,4 hPa 0,0 l/m 7,4 km/h (2 Bft) SW 225 10,3 C 27,6 C 10,9 km/h (2 Bft)
15.07.2013 16:30 25,7 C 37 % 1025,4 hPa 0,0 l/m 7,9 km/h (2 Bft) NW 315 9,9 C 27,6 C 5,6 km/h (1 Bft)
15.07.2013 16:35 25,4 C 37 % 1025,4 hPa 0,0 l/m 8,2 km/h (2 Bft) S 180 9,6 C 27,7 C 12,7 km/h (3 Bft)
15.07.2013 16:40 25,6 C 38 % 1025,3 hPa 0,0 l/m 7,7 km/h (2 Bft) S 180 10,2 C 27,8 C 11,4 km/h (2 Bft)
15.07.2013 16:45 24,9 C 42 % 1025,3 hPa 0,0 l/m 7,7 km/h (2 Bft) S 180 11,1 C 27,8 C 8,7 km/h (2 Bft)
15.07.2013 16:50 24,6 C 40 % 1025,3 hPa 0,0 l/m 7,7 km/h (2 Bft) W 270 10,1 C 27,7 C 6,1 km/h (2 Bft)
15.07.2013 16:55 24,1 C 42 % 1025,3 hPa 0,0 l/m 7,2 km/h (2 Bft) S-SO 157 10,4 C 27,2 C 8,4 km/h (2 Bft)
15.07.2013 17:00 24,1 C 41 % 1025,4 hPa 0,0 l/m 6,8 km/h (2 Bft) S-SW 202 10,0 C 27,1 C 4,5 km/h (1 Bft)
15.07.2013 17:05 23,7 C 43 % 1025,4 hPa 0,0 l/m 6,4 km/h (2 Bft) S 180 10,4 C 26,4 C 5,1 km/h (1 Bft)
15.07.2013 17:10 23,9 C 43 % 1025,4 hPa 0,0 l/m 6,0 km/h (2 Bft) W-NW 292 10,5 C 27,1 C 10,9 km/h (2 Bft)
15.07.2013 17:15 23,5 C 43 % 1025,4 hPa 0,0 l/m 7,1 km/h (2 Bft) W-SW 247 10,2 C 27,0 C 10,6 km/h (2 Bft)
15.07.2013 17:20 23,1 C 45 % 1025,4 hPa 0,0 l/m 7,4 km/h (2 Bft) S 180 10,5 C 25,9 C 4,7 km/h (1 Bft)
15.07.2013 17:25 23,7 C 46 % 1025,4 hPa 0,0 l/m 5,1 km/h (1 Bft) S 180 11,4 C 26,9 C 7,6 km/h (2 Bft)
15.07.2013 17:30 23,5 C 45 % 1025,4 hPa 0,0 l/m 4,7 km/h (1 Bft) S-SW 202 10,9 C 27,7 C 6,8 km/h (2 Bft)
15.07.2013 17:35 23,1 C 44 % 1025,4 hPa 0,0 l/m 6,0 km/h (2 Bft) W-SW 247 10,2 C 27,2 C 3,9 km/h (1 Bft)
15.07.2013 17:40 23,3 C 44 % 1025,4 hPa 0,0 l/m 5,3 km/h (1 Bft) W-NW 292 10,4 C 27,4 C 3,7 km/h (1 Bft)
15.07.2013 17:45 22,9 C 45 % 1025,4 hPa 0,0 l/m 4,2 km/h (1 Bft) W-NW 292 10,3 C 27,2 C 5,6 km/h (1 Bft)
15.07.2013 17:50 23,1 C 45 % 1025,4 hPa 0,0 l/m 5,0 km/h (1 Bft) W-SW 247 10,5 C 26,8 C 3,2 km/h (1 Bft)
15.07.2013 17:55 23,2 C 44 % 1025,4 hPa 0,0 l/m 4,8 km/h (1 Bft) W-SW 247 10,3 C 27,5 C 14,0 km/h (3 Bft)
15.07.2013 18:00 23,2 C 44 % 1025,4 hPa 0,0 l/m 5,0 km/h (1 Bft) W-SW 247 10,3 C 27,5 C 3,7 km/h (1 Bft)
15.07.2013 18:05 23,5 C 44 % 1025,4 hPa 0,0 l/m 5,3 km/h (1 Bft) S 180 10,5 C 28,0 C 7,9 km/h (2 Bft)
15.07.2013 18:10 23,2 C 41 % 1025,4 hPa 0,0 l/m 5,8 km/h (2 Bft) W-SW 247 9,2 C 27,8 C 10,8 km/h (2 Bft)
15.07.2013 18:15 23,0 C 44 % 1025,4 hPa 0,0 l/m 6,6 km/h (2 Bft) S 180 10,1 C 27,3 C 4,7 km/h (1 Bft)
15.07.2013 18:20 23,0 C 41 % 1025,3 hPa 0,0 l/m 6,1 km/h (2 Bft) S 180 9,0 C 27,2 C 5,1 km/h (1 Bft)
15.07.2013 18:25 23,0 C 41 % 1025,3 hPa 0,0 l/m 5,6 km/h (1 Bft) N-NW 337 9,0 C 26,9 C 2,3 km/h (1 Bft)
15.07.2013 18:30 23,2 C 42 % 1025,3 hPa 0,0 l/m 4,8 km/h (1 Bft) W 270 9,6 C 27,2 C 9,3 km/h (2 Bft)
15.07.2013 18:35 23,0 C 40 % 1025,3 hPa 0,0 l/m 4,8 km/h (1 Bft) S-SW 202 8,7 C 27,2 C 6,1 km/h (2 Bft)
15.07.2013 18:40 22,8 C 42 % 1025,2 hPa 0,0 l/m 5,8 km/h (2 Bft) W 270 9,2 C 26,9 C 6,8 km/h (2 Bft)
15.07.2013 18:45 22,8 C 43 % 1025,2 hPa 0,0 l/m 5,3 km/h (1 Bft) W-SW 247 9,6 C 26,7 C 4,3 km/h (1 Bft)
15.07.2013 18:50 22,8 C 43 % 1025,2 hPa 0,0 l/m 4,8 km/h (1 Bft) W-SW 247 9,6 C 26,8 C 5,1 km/h (1 Bft)
15.07.2013 18:55 22,6 C 43 % 1025,2 hPa 0,0 l/m 4,5 km/h (1 Bft) S 180 9,4 C 26,7 C 5,8 km/h (2 Bft)
15.07.2013 19:00 22,3 C 44 % 1024,7 hPa 0,0 l/m 5,0 km/h (1 Bft) S-SW 202 9,5 C 26,7 C 6,9 km/h (2 Bft)
15.07.2013 19:05 22,1 C 46 % 1024,7 hPa 0,0 l/m 5,3 km/h (1 Bft) S 180 9,9 C 26,2 C 4,3 km/h (1 Bft)
15.07.2013 19:10 22,1 C 46 % 1024,7 hPa 0,0 l/m 4,7 km/h (1 Bft) W 270 9,9 C 26,4 C 6,8 km/h (2 Bft)
15.07.2013 19:15 22,0 C 47 % 1024,7 hPa 0,0 l/m 3,2 km/h (1 Bft) W 270 10,2 C 26,5 C 2,7 km/h (1 Bft)
15.07.2013 19:20 21,8 C 47 % 1024,8 hPa 0,0 l/m 3,1 km/h (1 Bft) S 180 10,0 C 26,6 C 3,9 km/h (1 Bft)
15.07.2013 19:25 21,7 C 49 % 1024,8 hPa 0,0 l/m 3,9 km/h (1 Bft) W-NW 292 10,5 C 26,1 C 6,1 km/h (2 Bft)
15.07.2013 19:30 21,6 C 49 % 1024,8 hPa 0,0 l/m 4,0 km/h (1 Bft) S-SW 202 10,4 C 25,9 C 2,6 km/h (1 Bft)
15.07.2013 19:35 21,6 C 49 % 1024,8 hPa 0,0 l/m 4,2 km/h (1 Bft) S-SO 157 10,4 C 25,5 C 4,8 km/h (1 Bft)
15.07.2013 19:40 21,5 C 49 % 1024,9 hPa 0,0 l/m 4,5 km/h (1 Bft) S 180 10,3 C 25,3 C 5,8 km/h (2 Bft)
15.07.2013 19:45 21,2 C 49 % 1024,9 hPa 0,0 l/m 3,7 km/h (1 Bft) W-SW 247 10,1 C 24,8 C 2,7 km/h (1 Bft)
15.07.2013 19:50 21,1 C 49 % 1024,9 hPa 0,0 l/m 3,5 km/h (1 Bft) W-SW 247 10,0 C 24,7 C 4,0 km/h (1 Bft)
15.07.2013 19:55 20,8 C 51 % 1024,9 hPa 0,0 l/m 2,7 km/h (1 Bft) SW 225 10,3 C 24,3 C 1,8 km/h (1 Bft)
15.07.2013 20:00 20,7 C 51 % 1024,9 hPa 0,0 l/m 3,1 km/h (1 Bft) W-SW 247 10,2 C 24,1 C 4,3 km/h (1 Bft)
15.07.2013 20:05 20,4 C 50 % 1024,9 hPa 0,0 l/m 2,6 km/h (1 Bft) W 270 9,6 C 23,8 C 3,2 km/h (1 Bft)
15.07.2013 20:10 20,4 C 50 % 1024,9 hPa 0,0 l/m 2,4 km/h (1 Bft) W-SW 247 9,6 C 23,6 C 0,0 km/h (0 Bft)
15.07.2013 20:15 20,2 C 49 % 1024,9 hPa 0,0 l/m 2,3 km/h (1 Bft) W-NW 292 9,1 C 23,4 C 2,7 km/h (1 Bft)
15.07.2013 20:20 20,0 C 49 % 1025,1 hPa 0,0 l/m 1,9 km/h (1 Bft) W 270 9,0 C 23,1 C 2,6 km/h (1 Bft)
15.07.2013 20:25 19,8 C 50 % 1025,1 hPa 0,0 l/m 1,8 km/h (1 Bft) S-SW 202 9,1 C 22,7 C 1,9 km/h (1 Bft)
15.07.2013 20:30 19,5 C 50 % 1025,1 hPa 0,0 l/m 1,3 km/h (1 Bft) W-SW 247 8,8 C 22,5 C 2,6 km/h (1 Bft)
15.07.2013 20:35 19,1 C 51 % 1025,1 hPa 0,0 l/m 1,0 km/h (0 Bft) W-SW 247 8,7 C 22,1 C 3,4 km/h (1 Bft)
15.07.2013 20:40 18,8 C 51 % 1025,1 hPa 0,0 l/m 1,0 km/h (0 Bft) W-SW 247 8,4 C 21,7 C 0,0 km/h (0 Bft)
15.07.2013 20:45 18,4 C 52 % 1025,1 hPa 0,0 l/m 0,5 km/h (0 Bft) O-SO 112 8,4 C 21,1 C 0,0 km/h (0 Bft)
15.07.2013 20:50 18,2 C 54 % 1025,1 hPa 0,0 l/m 0,8 km/h (0 Bft) O-NO 67 8,7 C 20,6 C 3,1 km/h (1 Bft)
15.07.2013 20:55 17,9 C 55 % 1025,1 hPa 0,0 l/m 2,7 km/h (1 Bft) O 90 8,7 C 19,5 C 4,0 km/h (1 Bft)
15.07.2013 21:00 17,6 C 57 % 1025,3 hPa 0,0 l/m 3,5 km/h (1 Bft) NO 45 9,0 C 18,6 C 4,7 km/h (1 Bft)
15.07.2013 21:05 17,0 C 59 % 1025,3 hPa 0,0 l/m 3,7 km/h (1 Bft) NO 45 8,9 C 17,7 C 3,5 km/h (1 Bft)
15.07.2013 21:10 16,8 C 60 % 1025,3 hPa 0,0 l/m 3,5 km/h (1 Bft) O-SO 112 9,0 C 17,1 C 3,1 km/h (1 Bft)
15.07.2013 21:15 16,4 C 60 % 1025,3 hPa 0,0 l/m 2,9 km/h (1 Bft) O-SO 112 8,6 C 16,4 C 3,1 km/h (1 Bft)
15.07.2013 21:20 16,4 C 61 % 1026,1 hPa 0,0 l/m 3,1 km/h (1 Bft) O-NO 67 8,9 C 16,1 C 4,0 km/h (1 Bft)
15.07.2013 21:25 16,5 C 63 % 1026,1 hPa 0,0 l/m 4,0 km/h (1 Bft) O-NO 67 9,4 C 16,0 C 4,5 km/h (1 Bft)
15.07.2013 21:30 16,5 C 63 % 1026,1 hPa 0,0 l/m 3,9 km/h (1 Bft) O-SO 112 9,4 C 16,0 C 3,2 km/h (1 Bft)
15.07.2013 21:35 16,1 C 66 % 1026,1 hPa 0,0 l/m 2,9 km/h (1 Bft) O 90 9,7 C 15,9 C 2,9 km/h (1 Bft)
15.07.2013 21:40 16,0 C 66 % 1025,6 hPa 0,0 l/m 2,3 km/h (1 Bft) O-SO 112 9,7 C 15,8 C 1,6 km/h (1 Bft)
15.07.2013 21:45 15,7 C 68 % 1025,6 hPa 0,0 l/m 1,0 km/h (0 Bft) O 90 9,8 C 15,5 C 2,6 km/h (1 Bft)
15.07.2013 21:50 15,6 C 68 % 1025,6 hPa 0,0 l/m 1,4 km/h (1 Bft) O-NO 67 9,7 C 15,4 C 4,8 km/h (1 Bft)
15.07.2013 21:55 15,0 C 67 % 1025,6 hPa 0,0 l/m 1,4 km/h (1 Bft) O-NO 67 8,9 C 15,2 C 2,6 km/h (1 Bft)
15.07.2013 22:00 15,1 C 68 % 1025,9 hPa 0,0 l/m 1,1 km/h (1 Bft) O-NO 67 9,2 C 14,9 C 0,0 km/h (0 Bft)
15.07.2013 22:05 15,0 C 68 % 1025,9 hPa 0,0 l/m 2,1 km/h (1 Bft) O 90 9,1 C 14,7 C 3,5 km/h (1 Bft)
15.07.2013 22:10 14,9 C 68 % 1025,9 hPa 0,0 l/m 2,1 km/h (1 Bft) O 90 9,0 C 14,7 C 0,0 km/h (0 Bft)
15.07.2013 22:15 14,7 C 68 % 1025,9 hPa 0,0 l/m 1,3 km/h (1 Bft) N-NO 22 8,9 C 14,5 C 1,9 km/h (1 Bft)
15.07.2013 22:20 14,9 C 68 % 1026,1 hPa 0,0 l/m 1,1 km/h (1 Bft) NO 45 9,0 C 14,3 C 2,4 km/h (1 Bft)
15.07.2013 22:25 15,2 C 68 % 1026,1 hPa 0,0 l/m 1,0 km/h (0 Bft) O-NO 67 9,3 C 14,2 C 0,0 km/h (0 Bft)
15.07.2013 22:30 15,1 C 68 % 1026,1 hPa 0,0 l/m 0,6 km/h (0 Bft) NO 45 9,2 C 14,3 C 0,0 km/h (0 Bft)
15.07.2013 22:35 14,6 C 70 % 1026,1 hPa 0,0 l/m 0,2 km/h (0 Bft) O 90 9,2 C 14,2 C 0,0 km/h (0 Bft)
15.07.2013 22:40 14,6 C 71 % 1026,2 hPa 0,0 l/m 0,2 km/h (0 Bft) O 90 9,4 C 14,1 C 0,0 km/h (0 Bft)
15.07.2013 22:45 14,5 C 71 % 1026,2 hPa 0,0 l/m 0,6 km/h (0 Bft) O 90 9,3 C 13,9 C 0,0 km/h (0 Bft)
15.07.2013 22:50 14,5 C 71 % 1026,2 hPa 0,0 l/m 1,6 km/h (1 Bft) S-SO 157 9,3 C 13,7 C 4,3 km/h (1 Bft)
15.07.2013 22:55 14,3 C 72 % 1026,2 hPa 0,0 l/m 2,7 km/h (1 Bft) N-NO 22 9,3 C 13,7 C 3,4 km/h (1 Bft)
15.07.2013 23:00 14,7 C 70 % 1026,1 hPa 0,0 l/m 3,4 km/h (1 Bft) NO 45 9,3 C 13,6 C 3,7 km/h (1 Bft)
15.07.2013 23:05 14,7 C 68 % 1026,1 hPa 0,0 l/m 3,9 km/h (1 Bft) NO 45 8,9 C 13,5 C 5,3 km/h (1 Bft)
15.07.2013 23:10 14,4 C 69 % 1026,1 hPa 0,0 l/m 4,5 km/h (1 Bft) NO 45 8,8 C 13,5 C 4,7 km/h (1 Bft)
15.07.2013 23:15 14,1 C 71 % 1026,1 hPa 0,0 l/m 4,8 km/h (1 Bft) NO 45 8,9 C 13,5 C 4,2 km/h (1 Bft)
15.07.2013 23:20 13,9 C 72 % 1026,1 hPa 0,0 l/m 4,7 km/h (1 Bft) NO 45 8,9 C 13,4 C 4,7 km/h (1 Bft)
15.07.2013 23:25 13,4 C 73 % 1026,1 hPa 0,0 l/m 3,5 km/h (1 Bft) O-NO 67 8,7 C 13,1 C 2,6 km/h (1 Bft)
15.07.2013 23:30 13,4 C 74 % 1026,1 hPa 0,0 l/m 3,2 km/h (1 Bft) NO 45 8,9 C 12,9 C 4,3 km/h (1 Bft)
15.07.2013 23:35 13,1 C 74 % 1026,1 hPa 0,0 l/m 1,9 km/h (1 Bft) O-NO 67 8,6 C 12,7 C 5,0 km/h (1 Bft)
15.07.2013 23:40 13,4 C 74 % 1026,2 hPa 0,0 l/m 2,4 km/h (1 Bft) O-NO 67 8,9 C 12,5 C 4,2 km/h (1 Bft)
15.07.2013 23:45 13,2 C 75 % 1026,2 hPa 0,0 l/m 4,5 km/h (1 Bft) O 90 8,9 C 12,6 C 5,3 km/h (1 Bft)
15.07.2013 23:50 13,2 C 75 % 1026,2 hPa 0,0 l/m 4,5 km/h (1 Bft) O 90 8,9 C 12,6 C 4,3 km/h (1 Bft)
15.07.2013 23:55 12,9 C 76 % 1026,2 hPa 0,0 l/m 4,0 km/h (1 Bft) O 90 8,8 C 12,5 C 4,5 km/h (1 Bft)
_ Min-Zeit 05:55 16:10 05:55 - 08:25 - - 05:55 05:55 22:45
Minimum _ 10,3 C 36 % 1023,3 hPa - 0,0 km/h (0 Bft) - - 7,7 C 9,8 C 0,0 km/h (0 Bft)
_ Max-Zeit 12:00 06:10 23:55 23:55 14:35 - - 08:35 18:05 14:35
Maximum _ 27,3 C 85 % 1026,2 hPa 0,0 l/m 9,2 km/h
S (2 Bft)
- - 13,9 C 28,0 C 20,1 km/h
S (4 Bft)
Durchschnitt _ 18,9 C 59 % 1024,9 hPa #0,0 l/m 3,2 km/h (1 Bft) S - 10,0 C 19,6 C 4,0 km/h (1 Bft)